IEDINB57 Weather Reports


Display with metric or nautical units.
time (UTC)temp
F
wind
direction
speed
MPH
gust
MPH
rain 1hr
in
rain 24hr
in
rain mn
in
humidity
%
barometer
mb
20260506135047 46 5 3.0 13.0 0.00 0.00 0.00 59 1016.9
20260506134553 46 33 3.0 9.0 0.00 0.00 0.00 57 1016.9
20260506134048 46 11 3.0 11.0 0.00 0.00 0.00 56 1017.0
20260506133548 46 66 4.0 11.0 0.00 0.00 0.00 59 1016.9
20260506133101 46 51 4.0 11.0 0.00 0.00 0.00 59 1017.0
20260506132547 46 351 4.0 11.0 0.00 0.00 0.00 58 1017.0
20260506132048 46 17 5.0 11.0 0.00 0.00 0.00 56 1017.0
20260506131600 48 101 3.0 10.0 0.00 0.00 0.00 57 1017.0
20260506131047 48 46 4.0 10.0 0.00 0.00 0.00 57 1017.1
20260506130547 48 332 4.0 12.0 0.00 0.00 0.00 56 1017.1
20260506130055 47 11 3.0 12.0 0.00 0.00 0.00 56 1017.0
20260506125547 48 19 4.0 10.0 0.00 0.00 0.00 57 1017.1
20260506125047 48 352 3.0 11.0 0.00 0.00 0.00 57 1017.3
20260506124558 47 5 5.0 11.0 0.00 0.00 0.00 58 1017.1
20260506124047 48 9 4.0 11.0 0.00 0.00 0.00 60 1017.0
20260506123547 48 9 4.0 10.0 0.00 0.00 0.00 59 1017.0
20260506123051 48 69 3.0 10.0 0.00 0.00 0.00 58 1017.0
20260506122547 48 355 3.0 10.0 0.00 0.00 0.00 57 1017.0
20260506122048 48 33 4.0 9.0 0.00 0.00 0.00 58 1017.0
20260506121555 47 14 4.0 9.0 0.00 0.00 0.00 59 1017.0
20260506121047 47 34 4.0 9.0 0.00 0.00 0.00 60 1017.1
20260506120549 47 32 2.0 9.0 0.00 0.00 0.00 63 1017.1
20260506120050 47 37 3.0 9.0 0.00 0.00 0.00 60 1017.0
20260506115547 47 78 3.0 9.0 0.00 0.00 0.00 60 1017.2
20260506115046 47 18 3.0 9.0 0.00 0.00 0.00 62 1017.3
20260506114559 46 360 4.0 9.0 0.00 0.00 0.00 61 1017.3
20260506114047 46 13 3.0 11.0 0.00 0.00 0.00 61 1017.4
20260506113547 46 22 3.0 11.0 0.00 0.00 0.00 62 1017.3
20260506113054 47 5 4.0 11.0 0.00 0.00 0.00 61 1017.5
20260506112550 46 44 3.0 9.0 0.00 0.00 0.00 62 1017.5
20260506112048 46 12 3.0 9.0 0.00 0.00 0.00 61 1017.5
20260506111558 46 75 2.0 10.0 0.00 0.00 0.00 61 1017.5
20260506111048 47 62 3.0 10.0 0.00 0.00 0.00 61 1017.5
20260506110547 46 18 4.0 10.0 0.00 0.00 0.00 63 1017.6
20260506105549 46 82 3.0 8.0 0.00 0.00 0.00 64 1017.6
20260506105049 46 86 2.0 10.0 0.00 0.00 0.00 65 1017.7
20260506104557 45 61 2.0 10.0 0.00 0.00 0.00 64 1017.8
20260506104048 46 30 3.0 8.0 0.00 0.00 0.00 64 1017.8
20260506103547 45 345 3.0 8.0 0.00 0.00 0.00 65 1017.8
20260506103049 45 324 2.0 8.0 0.00 0.00 0.00 64 1017.8
20260506102550 45 13 3.0 8.0 0.00 0.00 0.00 65 1017.8
20260506102047 46 29 2.0 7.0 0.00 0.00 0.00 66 1017.8
20260506101554 45 316 3.0 7.0 0.00 0.00 0.00 64 1017.9
20260506101047 45 86 1.0 6.0 0.00 0.00 0.00 66 1017.9
20260506100547 44 95 2.0 6.0 0.00 0.00 0.00 65 1017.9
20260506100100 44 117 2.0 7.0 0.00 0.00 0.00 65 1017.9
20260506095547 43 284 4.0 8.0 0.00 0.00 0.00 64 1018.0
20260506095049 44 100 1.0 8.0 0.00 0.00 0.00 65 1018.1
20260506094621 44 360 1.0 7.0 0.00 0.00 0.00 68 1018.0
20260506094048 43 15 3.0 6.0 0.00 0.00 0.00 65 1018.0
20260506093548 43 95 2.0 7.0 0.00 0.00 0.00 67 1018.1
20260506093051 43 82 1.0 7.0 0.00 0.00 0.00 66 1018.2
20260506092546 42 111 3.0 7.0 0.00 0.00 0.00 66 1018.0
20260506092047 43 85 2.0 7.0 0.00 0.00 0.00 66 1018.2
20260506091550 42 55 1.0 6.0 0.00 0.00 0.00 68 1018.1
20260506091046 42 61 2.0 5.0 0.00 0.00 0.00 67 1018.2
20260506090546 42 0 1.0 5.0 0.00 0.00 0.00 67 1018.2
20260506090050 42 80 2.0 5.0 0.00 0.00 0.00 67 1018.3
20260506085548 42 0 0.0 3.0 0.00 0.00 0.00 67 1018.2
20260506085047 42 103 1.0 4.0 0.00 0.00 0.00 68 1018.3
20260506084550 42 105 1.0 4.0 0.00 0.00 0.00 67 1018.2
20260506084047 41 0 1.0 5.0 0.00 0.00 0.00 67 1018.3
20260506083553 41 0 1.0 5.0 0.00 0.00 0.00 68 1018.3
20260506083051 41 65 2.0 6.0 0.00 0.00 0.00 69 1018.3
20260506082549 41 16 2.0 6.0 0.00 0.00 0.00 68 1018.3
20260506082049 41 121 1.0 6.0 0.00 0.00 0.00 69 1018.4
20260506081556 41 0 1.0 5.0 0.00 0.00 0.00 69 1018.3
20260506081047 41 78 1.0 5.0 0.00 0.00 0.00 69 1018.4
20260506080547 41 313 1.0 6.0 0.00 0.00 0.00 71 1018.3
20260506073053 40 90 0.0 3.0 0.00 0.00 0.00 71 1018.3
20260506072548 39 89 1.0 4.0 0.00 0.00 0.00 72 1018.4
20260506072047 39 0 2.0 4.0 0.00 0.00 0.00 73 1018.4
20260506071556 39 93 0.0 3.0 0.00 0.00 0.00 71 1018.3
20260506071047 38 94 1.0 3.0 0.00 0.00 0.00 71 1018.4
20260506070549 38 0 0.0 2.0 0.00 0.00 0.00 70 1018.3
20260506062051 36 0 0.0 0.0 0.00 0.00 0.00 79 1018.1
20260506061554 36 0 0.0 0.0 0.00 0.00 0.00 81 1018.2
20260506061047 36 0 0.0 0.0 0.00 0.00 0.00 83 1018.0
20260506060548 35 0 0.0 0.0 0.00 0.00 0.00 84 1018.1
20260506060112 35 0 0.0 0.0 0.00 0.00 0.00 86 1018.1
20260506051047 33 0 0.0 0.0 0.00 0.00 0.00 88 1018.2
20260506050547 32 0 0.0 0.0 0.00 0.00 0.00 88 1018.1
20260506045050 32 0 0.0 0.0 0.00 0.00 0.00 88 1018.2
20260506044607 32 0 0.0 0.0 0.00 0.00 0.00 88 1018.1
20260506044048 32 0 0.0 0.0 0.00 0.00 0.00 88 1018.1
20260506043548 31 0 0.0 0.0 0.00 0.00 0.00 88 1018.1
20260506043054 32 0 0.0 1.0 0.00 0.00 0.00 88 1018.2
20260506042548 32 0 0.0 1.0 0.00 0.00 0.00 88 1018.1
20260506042046 32 0 0.0 1.0 0.00 0.00 0.00 88 1018.1
20260506041552 32 0 0.0 1.0 0.00 0.00 0.00 88 1017.9
20260506041047 32 0 0.0 1.0 0.00 0.00 0.00 88 1018.1
20260506040547 32 0 0.0 1.0 0.00 0.00 0.00 88 1018.1
20260506040056 32 0 0.0 1.0 0.00 0.00 0.00 87 1017.9
20260506035547 32 0 0.0 0.0 0.00 0.00 0.00 87 1018.0
20260506035046 32 0 0.0 0.0 0.00 0.00 0.00 87 1018.1
20260506034557 32 0 0.0 0.0 0.00 0.00 0.00 87 1018.2
20260506034048 32 0 0.0 0.0 0.00 0.00 0.00 87 1018.1
20260506033548 32 0 0.0 1.0 0.00 0.00 0.00 87 1018.2
20260506033052 32 0 0.0 1.0 0.00 0.00 0.00 87 1018.2
20260506032551 32 0 0.0 1.0 0.00 0.00 0.00 86 1018.2
20260506032048 33 0 0.0 1.0 0.00 0.00 0.00 86 1018.3
20260506031559 33 0 0.0 0.0 0.00 0.00 0.00 87 1018.3
20260506031047 33 0 0.0 0.0 0.00 0.00 0.00 86 1018.3
20260506030548 33 0 0.0 0.0 0.00 0.00 0.00 86 1018.3
20260506030057 33 0 0.0 0.0 0.00 0.00 0.00 86 1018.4
20260506025547 33 0 0.0 0.0 0.00 0.00 0.00 86 1018.3
20260506025047 33 0 0.0 0.0 0.00 0.00 0.00 86 1018.3
20260506024602 33 0 0.0 0.0 0.00 0.00 0.00 86 1018.3
20260506024047 33 0 0.0 0.0 0.00 0.00 0.00 87 1018.3
20260506023549 33 0 0.0 1.0 0.00 0.00 0.00 87 1018.4
20260506023103 33 0 0.0 1.0 0.00 0.00 0.00 86 1018.4
20260506022548 33 0 0.0 1.0 0.00 0.00 0.00 87 1018.3
20260506022048 33 0 0.0 1.0 0.00 0.00 0.00 87 1018.1
20260506021556 33 0 0.0 1.0 0.00 0.00 0.00 86 1018.3
20260506021049 33 0 0.0 2.0 0.00 0.00 0.00 86 1018.4
20260506020548 33 0 0.0 2.0 0.00 0.00 0.00 86 1018.3
20260506020054 33 0 0.0 0.0 0.00 0.00 0.00 86 1018.4
20260506015547 33 0 0.0 0.0 0.00 0.00 0.00 85 1018.5
20260506015047 34 0 0.0 0.0 0.00 0.00 0.00 86 1018.6
20260506014557 33 0 0.0 0.0 0.00 0.00 0.00 86 1018.6
20260506014046 33 0 0.0 0.0 0.00 0.00 0.00 85 1018.6
20260506013551 33 0 0.0 0.0 0.00 0.00 0.00 85 1018.7
20260506013056 33 0 0.0 0.0 0.00 0.00 0.00 85 1018.6
20260506012547 33 0 0.0 0.0 0.00 0.00 0.00 85 1018.7
20260506012048 33 0 0.0 0.0 0.00 0.00 0.00 84 1018.8
20260506011554 34 0 0.0 0.0 0.00 0.00 0.00 84 1018.7
20260506011047 34 0 0.0 0.0 0.00 0.00 0.00 84 1018.8
20260506010547 34 0 0.0 0.0 0.00 0.00 0.00 84 1018.9
20260506010053 34 0 0.0 0.0 0.00 0.00 0.00 83 1018.9
20260506005549 34 0 0.0 0.0 0.00 0.00 0.00 83 1018.9
20260506005048 34 0 0.0 0.0 0.00 0.00 0.00 83 1018.8
20260506004552 34 0 0.0 0.0 0.00 0.00 0.00 83 1018.9
20260506004048 34 0 0.0 0.0 0.00 0.00 0.00 83 1018.9
20260506003548 34 0 0.0 0.0 0.00 0.00 0.00 83 1019.0
20260506003054 34 0 0.0 0.0 0.00 0.00 0.00 83 1018.8
20260506002549 33 0 0.0 0.0 0.00 0.00 0.00 83 1018.9
20260506002048 33 0 0.0 0.0 0.00 0.00 0.00 83 1018.9
20260506001551 33 0 0.0 1.0 0.00 0.00 0.00 82 1018.8
20260506001049 33 0 0.0 1.0 0.00 0.00 0.00 82 1018.7
20260506000549 34 94 0.0 0.0 0.00 0.00 0.00 81 1018.7
20260506000054 34 0 0.0 0.0 0.00 0.00 0.00 81 1018.8
20260505235551 34 0 0.0 0.0 0.00 0.00 0.00 80 1018.7
20260505235048 34 0 0.0 0.0 0.00 0.00 0.00 80 1018.8
20260505234555 34 0 0.0 0.0 0.00 0.00 0.00 80 1018.7
20260505234054 34 0 0.0 0.0 0.00 0.00 0.00 80 1018.9
20260505233550 35 0 0.0 0.0 0.00 0.00 0.00 80 1018.9
20260505233053 34 0 0.0 0.0 0.00 0.00 0.00 79 1019.0
20260505232552 35 0 0.0 0.0 0.00 0.00 0.00 79 1018.8
20260505232051 35 0 0.0 0.0 0.00 0.00 0.00 78 1018.8
20260505231602 35 0 0.0 0.0 0.00 0.00 0.00 78 1018.9
20260505231048 35 0 0.0 0.0 0.00 0.00 0.00 78 1018.8
20260505230548 35 0 0.0 0.0 0.00 0.00 0.00 78 1018.9
20260505230059 36 0 0.0 0.0 0.00 0.00 0.00 78 1019.0
20260505225548 35 0 0.0 1.0 0.00 0.00 0.00 79 1019.1
20260505225051 35 0 0.0 1.0 0.00 0.00 0.00 78 1019.0
20260505224556 36 94 0.0 1.0 0.00 0.00 0.00 77 1018.9
20260505224051 36 0 0.0 2.0 0.00 0.00 0.00 76 1018.9
20260505223547 36 0 0.0 2.0 0.00 0.00 0.00 77 1018.9
20260505223059 36 0 0.0 1.0 0.00 0.00 0.00 77 1018.9
20260505222551 36 0 0.0 0.0 0.00 0.00 0.00 77 1019.2
20260505222050 36 0 0.0 1.0 0.00 0.00 0.00 76 1019.2
20260505221557 37 0 0.0 1.0 0.00 0.00 0.00 76 1019.2
20260505221047 37 0 0.0 2.0 0.00 0.00 0.00 75 1019.2
20260505220550 37 0 0.0 2.0 0.00 0.00 0.00 74 1019.1
20260505220059 37 0 0.0 1.0 0.00 0.00 0.00 75 1019.1
20260505215548 37 0 0.0 0.0 0.00 0.00 0.00 75 1019.1
20260505215048 37 0 0.0 0.0 0.00 0.00 0.00 74 1019.1
20260505214603 37 0 0.0 1.0 0.00 0.00 0.00 74 1019.1
20260505214051 38 0 0.0 1.0 0.00 0.00 0.00 73 1019.1
20260505213550 38 0 0.0 0.0 0.00 0.00 0.00 73 1019.0
20260505213104 38 0 0.0 0.0 0.00 0.00 0.00 73 1019.1
20260505212550 38 0 0.0 1.0 0.00 0.00 0.00 73 1019.1
20260505212050 38 0 0.0 4.0 0.00 0.00 0.00 73 1019.1
20260505211605 38 0 0.0 4.0 0.00 0.00 0.00 72 1019.1
20260505211051 38 95 0.0 2.0 0.00 0.00 0.00 72 1019.1
20260505210550 39 95 0.0 4.0 0.00 0.00 0.00 71 1019.1
20260505210055 39 95 0.0 4.0 0.00 0.00 0.00 71 1019.1
20260505205550 39 0 1.0 4.0 0.00 0.00 0.00 71 1019.1
20260505205049 39 0 0.0 4.0 0.00 0.00 0.00 70 1019.1
20260505204555 39 0 0.0 4.0 0.00 0.00 0.00 70 1019.1
20260505204049 39 91 1.0 8.0 0.00 0.00 0.00 69 1019.2
20260505203548 39 92 2.0 8.0 0.00 0.00 0.00 69 1019.1
20260505203103 39 112 2.0 7.0 0.00 0.00 0.00 69 1019.2
20260505202548 39 117 1.0 7.0 0.00 0.00 0.00 68 1019.2
20260505202050 39 97 1.0 7.0 0.00 0.00 0.00 68 1019.2
20260505201550 39 100 1.0 6.0 0.00 0.00 0.00 68 1019.2
20260505201048 39 94 2.0 6.0 0.00 0.00 0.00 68 1019.1
20260505200551 40 110 2.0 9.0 0.00 0.00 0.00 68 1019.2
20260505200055 40 110 3.0 9.0 0.00 0.00 0.00 68 1019.1
20260505195549 40 75 2.0 7.0 0.00 0.00 0.00 67 1019.3
20260505195048 40 82 2.0 7.0 0.00 0.00 0.00 67 1019.1
20260505194552 40 103 2.0 8.0 0.00 0.00 0.00 67 1019.1
20260505194050 40 113 2.0 8.0 0.00 0.00 0.00 67 1019.1
20260505193550 40 108 1.0 9.0 0.00 0.00 0.00 67 1018.9
20260505193056 40 104 1.0 9.0 0.00 0.00 0.00 67 1018.9
20260505192550 40 132 2.0 8.0 0.00 0.00 0.00 67 1018.8
20260505192049 40 45 1.0 4.0 0.00 0.00 0.00 68 1018.8
20260505191610 40 44 1.0 11.0 0.00 0.00 0.00 67 1018.9
20260505191049 40 43 2.0 11.0 0.00 0.00 0.00 67 1018.8
20260505190548 40 97 1.0 10.0 0.00 0.00 0.00 66 1018.9
20260505190054 40 74 3.0 10.0 0.00 0.00 0.00 66 1018.7
20260505185547 41 53 2.0 12.0 0.00 0.00 0.00 66 1018.7
20260505185051 41 19 3.0 12.0 0.00 0.00 0.00 65 1018.7
20260505184553 41 116 2.0 9.0 0.00 0.00 0.00 65 1018.7
20260505184048 41 60 2.0 8.0 0.00 0.00 0.00 65 1018.8
20260505183547 41 88 2.0 11.0 0.00 0.00 0.00 65 1018.8
20260505183056 41 13 4.0 11.0 0.00 0.00 0.00 66 1018.7
20260505182550 41 124 2.0 8.0 0.00 0.00 0.00 65 1018.7
20260505182052 41 131 2.0 10.0 0.00 0.00 0.00 65 1018.7
20260505181551 41 116 3.0 10.0 0.00 0.00 0.00 64 1018.7
20260505181049 41 111 1.0 8.0 0.00 0.00 0.00 65 1018.6
20260505180548 41 0 3.0 8.0 0.00 0.00 0.00 65 1018.8
20260505180103 41 132 3.0 11.0 0.00 0.00 0.00 64 1018.9
20260505175551 41 85 1.0 11.0 0.00 0.00 0.00 64 1018.7
20260505175050 41 73 3.0 12.0 0.00 0.00 0.00 63 1018.6
20260505174604 41 19 3.0 12.0 0.00 0.00 0.00 64 1018.5
20260505174046 41 140 3.0 11.0 0.00 0.00 0.00 64 1018.6
20260505173547 42 360 1.0 11.0 0.00 0.00 0.00 65 1018.6
20260505173053 42 36 4.0 11.0 0.00 0.00 0.00 65 1018.6
20260505172547 42 112 3.0 10.0 0.00 0.00 0.00 64 1018.7
20260505172047 42 67 2.0 8.0 0.00 0.00 0.00 65 1018.6
20260505171555 42 82 2.0 8.0 0.00 0.00 0.00 65 1018.7
20260505171048 42 131 3.0 11.0 0.00 0.00 0.00 64 1018.7
20260505170551 42 80 2.0 11.0 0.00 0.00 0.00 65 1018.7
20260505170055 42 74 4.0 11.0 0.00 0.00 0.00 64 1018.7
20260505165548 42 79 3.0 13.0 0.00 0.00 0.00 65 1018.6
20260505165047 42 126 4.0 13.0 0.00 0.00 0.00 65 1018.6
20260505164554 42 109 3.0 11.0 0.00 0.00 0.00 66 1018.6
20260505164048 43 59 2.0 12.0 0.00 0.00 0.00 66 1018.5
20260505163547 43 83 3.0 12.0 0.00 0.00 0.00 66 1018.4
20260505163051 43 121 3.0 11.0 0.00 0.00 0.00 66 1018.6
20260505162547 42 14 3.0 10.0 0.00 0.00 0.00 66 1018.6
20260505162047 42 88 3.0 10.0 0.00 0.00 0.00 66 1018.5
20260505161554 42 39 3.0 10.0 0.00 0.00 0.00 66 1018.6
20260505161047 42 44 4.0 12.0 0.00 0.00 0.00 65 1018.6
20260505160547 42 55 2.0 12.0 0.00 0.00 0.00 66 1018.6
20260505153055 43 83 5.0 11.0 0.00 0.00 0.00 67 1018.5
20260505152548 43 52 2.0 15.0 0.00 0.00 0.00 68 1018.5
20260505152050 43 103 3.0 15.0 0.00 0.00 0.00 67 1018.5
20260505151552 43 346 4.0 15.0 0.00 0.00 0.00 67 1018.5
20260505151048 43 20 4.0 15.0 0.00 0.00 0.00 68 1018.5
20260505150547 43 84 5.0 15.0 0.00 0.00 0.00 68 1018.5
20260505140548 43 344 2.0 11.0 0.00 0.00 0.00 72 1018.3